Flight Track Log - Related Links

Times and Time Zones

All times are in EDT time to prevent confusion due to time zone crossing. See the UAL252 flight status page for this flight to view local times or setup timezone preferences in your user account.

Time Position Orientation Groundspeed Altitude Reporting Facility
EDT Latitude Longitude Course Direction KTS MPH feet Rate Location/Type
Wed 01:32:49 PM 33.9350 -118.4511 59° Northeast 177 204 1,700  Level Los Angeles Center
Wed 01:33:51 PM 33.9072 -118.5397 249° West 242 278 4,900 2,880 Climbing Los Angeles Center
Wed 01:34:00 PM 34.1239 -118.0856 59° Northeast  Level FlightAware Approximate
Wed 01:34:54 PM 33.8650 -118.6056 232° Southwest 259 298 7,700  Level Los Angeles Center
Wed 01:35:00 PM 34.1895 -117.9544 59° Northeast  Level FlightAware Approximate
Wed 01:35:56 PM 33.8369 -118.5383 117° Southeast 282 325 10,000  Level Los Angeles Center
Wed 01:36:00 PM 34.2658 -117.8342 40° Northeast  Level FlightAware Approximate
Wed 01:36:58 PM 33.9128 -118.4586 41° Northeast 346 398 10,700  Level Los Angeles Center
Wed 01:37:00 PM 34.3317 -117.7032 59° Northeast  Level FlightAware Approximate
Wed 01:38:00 PM 33.9689 -118.3728 52° Northeast 380 437 12,800  Level Los Angeles Center
Wed 01:39:02 PM 34.0464 -118.2375 55° Northeast 404 465 14,900 1,935 Climbing Los Angeles Center
Wed 01:40:04 PM 34.1117 -118.1203 56° Northeast 416 479 16,800 1,588 Climbing Los Angeles Center
Wed 01:41:18 PM 34.1797 -118.0006 55° Northeast 429 494 18,500 1,577 Climbing Los Angeles Center
Wed 01:42:21 PM 34.2633 -117.8519 56° Northeast 442 509 20,400 1,488 Climbing Los Angeles Center
Wed 01:43:23 PM 34.3361 -117.7222 56° Northeast 460 529 21,600 1,500 Climbing Los Angeles Center
Wed 01:44:25 PM 34.4136 -117.5792 57° Northeast 479 551 23,500 1,452 Climbing Los Angeles Center
Wed 01:45:27 PM 34.4869 -117.4469 56° Northeast 478 550 24,600 1,056 Climbing Los Angeles Center
Wed 01:46:30 PM 34.5681 -117.3139 53° Northeast 492 566 25,700 1,296 Climbing Los Angeles Center
Wed 01:47:32 PM 34.6778 -117.1631 48° Northeast 500 575 27,300 1,645 Climbing Los Angeles Center
Wed 01:48:34 PM 34.7686 -117.0350 49° Northeast 502 578 29,100 1,694 Climbing Los Angeles Center
Wed 01:49:36 PM 34.8578 -116.9106 49° Northeast 494 568 30,800 919 Climbing Los Angeles Center
Wed 01:50:38 PM 34.9464 -116.7867 49° Northeast 489 563 31,000 532 Climbing Los Angeles Center
Wed 01:51:40 PM 35.0356 -116.6581 50° Northeast 497 572 31,900 919 Climbing Los Angeles Center
Wed 01:52:42 PM 35.1456 -116.5042 49° Northeast 502 578 32,900 532 Climbing Los Angeles Center
Wed 01:53:44 PM 35.2392 -116.3731 49° Northeast 511 588 33,000 48 Climbing Los Angeles Center
Wed 01:54:47 PM 35.3306 -116.2433 49° Northeast 505 581 33,000  Level Los Angeles Center
Wed 01:55:49 PM 35.4203 -116.1122 50° Northeast 504 580 33,000  Level Los Angeles Center
Wed 01:56:51 PM 35.5144 -115.9819 48° Northeast 510 587 33,000  Level Los Angeles Center
Wed 01:57:53 PM 35.6097 -115.8431 50° Northeast 508 585 33,000  Level Los Angeles Center
Wed 01:58:55 PM 35.7006 -115.7108 50° Northeast 508 585 33,000 480 Level Los Angeles Center
Wed 01:59:58 PM 35.8108 -115.5506 50° Northeast 513 590 34,000 905 Climbing Los Angeles Center
Wed 02:01:01 PM 35.9028 -115.4169 50° Northeast 516 594 34,900 480 Climbing Los Angeles Center
Wed 02:02:03 PM 35.9953 -115.2833 49° Northeast 517 595 35,000 48 Climbing Los Angeles Center
Wed 02:03:05 PM 36.1022 -115.1217 51° Northeast 513 590 35,000  Level Los Angeles Center
Wed 02:04:07 PM 36.1872 -114.9769 54° Northeast 517 595 35,000  Level Los Angeles Center
Wed 02:05:09 PM 36.2719 -114.8303 54° Northeast 522 601 35,000  Level Los Angeles Center
Wed 02:06:11 PM 36.3572 -114.6844 54° Northeast 524 603 35,000  Level Los Angeles Center
Wed 02:07:13 PM 36.4425 -114.5378 54° Northeast 525 604 35,000  Level Los Angeles Center
Wed 02:08:16 PM 36.5431 -114.3617 55° Northeast 524 603 35,000 -48 Level Los Angeles Center
Wed 02:09:18 PM 36.6267 -114.2161 54° Northeast 521 600 34,900  Descending Los Angeles Center
Wed 02:10:20 PM 36.7111 -114.0683 54° Northeast 522 601 35,000 48 Climbing Los Angeles Center
Wed 02:11:22 PM 36.7950 -113.9197 55° Northeast 523 602 35,000  Level Los Angeles Center
Wed 02:12:24 PM 36.8797 -113.7703 55° Northeast 525 604 35,000  Level Los Angeles Center
Wed 02:13:26 PM 36.9650 -113.6194 55° Northeast 528 608 35,000  Level Los Angeles Center
Wed 02:14:28 PM 37.0664 -113.4383 55° Northeast 530 610 35,000  Level Los Angeles Center
Wed 02:15:31 PM 37.1497 -113.2889 55° Northeast 527 606 35,000  Level Los Angeles Center
Wed 02:16:33 PM 37.2331 -113.1392 55° Northeast 525 604 35,000  Level Los Angeles Center
Wed 02:17:35 PM 37.3156 -112.9881 56° Northeast 525 604 35,000  Level Los Angeles Center
Wed 02:18:37 PM 37.3836 -112.8247 62° Northeast 529 609 35,000  Level Los Angeles Center
Wed 02:19:39 PM 37.4597 -112.6256 64° Northeast 529 609 35,000  Level Los Angeles Center
Wed 02:20:41 PM 37.5231 -112.4636 64° Northeast 521 600 35,000 97 Level Los Angeles Center
Wed 02:21:43 PM 37.5850 -112.2981 65° Northeast 521 600 35,200 581 Climbing Los Angeles Center
Wed 02:22:45 PM 37.6456 -112.1311 65° Northeast 523 602 36,200 768 Climbing Los Angeles Center
Wed 02:23:48 PM 37.7078 -111.9653 65° Northeast 523 602 36,800 384 Climbing Los Angeles Center
Wed 02:24:50 PM 37.7769 -111.7794 65° Northeast 519 597 37,000 86 Climbing Los Angeles Center
Wed 02:26:08 PM 37.8578 -111.5647 64° Northeast 516 594 37,000  Level Salt Lake Center
Wed 02:27:14 PM 37.9167 -111.3975 66° East 521 600 37,000  Level Denver Center
Wed 02:28:16 PM 37.9833 -111.2128 65° Northeast 517 595 37,000  Level Denver Center
Wed 02:29:18 PM 38.0411 -111.0553 65° Northeast 515 593 37,000 -48 Level Denver Center
Wed 02:30:21 PM 38.1064 -110.8711 66° East 515 593 36,900  Descending Denver Center
Wed 02:31:18 PM 38.1650 -110.7158 64° Northeast 512 589 37,000  Climbing Salt Lake Center
Wed 02:32:20 PM 38.2211 -110.5569 66° East 514 592 36,900  Descending Salt Lake Center
Wed 02:33:22 PM 38.2861 -110.3714 66° East 514 592 37,000 48 Climbing Salt Lake Center
Wed 02:34:24 PM 38.3414 -110.2131 66° East 513 590 37,000  Level Salt Lake Center
Wed 02:35:31 PM 38.4050 -110.0247 67° East 515 593 37,000  Level Denver Center
Wed 02:36:33 PM 38.4700 -109.8397 66° East 514 592 37,000  Level Denver Center
Wed 02:37:35 PM 38.5258 -109.6792 66° East 515 593 37,000  Level Denver Center
Wed 02:38:37 PM 38.5894 -109.4892 67° East 520 598 37,000  Level Denver Center
Wed 02:39:39 PM 38.6436 -109.3281 67° East 517 595 37,000  Level Denver Center
Wed 02:40:41 PM 38.7078 -109.1414 66° East 514 592 37,000 -48 Level Denver Center
Wed 02:41:43 PM 38.7611 -108.9819 67° East 510 587 36,900  Descending Denver Center
Wed 02:42:45 PM 38.8239 -108.7964 66° East 509 586 37,000 97 Climbing Denver Center
Wed 02:43:47 PM 38.8761 -108.6406 67° East 501 577 37,100  Climbing Denver Center
Wed 02:44:50 PM 38.9372 -108.4569 67° East 503 579 37,000 -96 Descending Denver Center
Wed 02:45:52 PM 38.9892 -108.2989 67° East 509 586 36,900  Descending Denver Center
Wed 02:46:54 PM 39.0494 -108.1142 67° East 502 578 37,000 32 Climbing Denver Center
Wed 02:48:00 PM 39.1030 -107.9469 68° East  Level FlightAware Approximate
Wed 02:48:58 PM 39.1600 -107.7753 68° East 496 571 37,000  Level Denver Center
Wed 02:50:00 PM 39.2100 -107.6169 68° East 498 573 37,000  Level Denver Center
Wed 02:51:02 PM 39.2689 -107.4358 67° East 491 565 37,000  Level Denver Center
Wed 02:52:04 PM 39.3181 -107.2811 68° East 489 563 37,000  Level Denver Center
Wed 02:53:06 PM 39.3753 -107.1003 68° East 486 559 37,000 -48 Level Denver Center
Wed 02:54:08 PM 39.4228 -106.9467 68° East 484 557 36,900  Descending Denver Center
Wed 02:55:10 PM 39.4614 -106.7872 73° East 486 559 37,000 48 Climbing Denver Center
Wed 02:56:12 PM 39.4981 -106.5978 76° East 485 558 37,000  Level Denver Center
Wed 02:57:14 PM 39.5292 -106.4392 76° East 482 555 37,000  Level Denver Center
Wed 02:58:16 PM 39.5619 -106.2711 76° East 481 554 37,000  Level Denver Center
Wed 02:59:19 PM 39.5975 -106.0897 76° East 479 551 37,000  Level Denver Center
Wed 03:00:21 PM 39.6292 -105.9225 76° East 478 550 37,000  Level Denver Center
Wed 03:01:23 PM 39.6675 -105.7203 76° East 481 554 37,000 -48 Level Denver Center
Wed 03:02:25 PM 39.6983 -105.5539 76° East 473 544 36,900  Descending Denver Center
Wed 03:03:27 PM 39.7281 -105.3853 77° East 476 548 37,000 48 Climbing Denver Center
Wed 03:04:29 PM 39.7583 -105.2164 77° East 476 548 37,000  Level Denver Center
Wed 03:05:31 PM 39.7900 -105.0450 76° East 478 550 37,000  Level Denver Center
Wed 03:06:33 PM 39.8211 -104.8742 77° East 478 550 37,000  Level Denver Center
Wed 03:07:35 PM 39.8514 -104.7022 77° East 480 552 37,000  Level Denver Center
Wed 03:08:37 PM 39.8822 -104.5275 77° East 496 571 37,000  Level Denver Center
Wed 03:09:39 PM 39.9178 -104.3206 77° East 491 565 37,000  Level Denver Center
Wed 03:10:41 PM 39.9461 -104.1544 77° East 468 539 37,000  Level Denver Center
Wed 03:11:43 PM 39.9756 -103.9831 77° East 478 550 37,000  Level Denver Center
Wed 03:12:45 PM 40.0036 -103.8156 78° East 464 534 37,000  Level Denver Center
Wed 03:13:47 PM 40.0325 -103.6467 77° East 459 528 37,000  Level Denver Center
Wed 03:14:50 PM 40.0608 -103.4750 78° East 480 552 37,000  Level Denver Center
Wed 03:15:52 PM 40.0947 -103.2717 78° East 478 550 37,000  Level Denver Center
Wed 03:16:54 PM 40.1214 -103.1028 78° East 476 548 37,000  Level Denver Center
Wed 03:17:56 PM 40.1500 -102.9347 77° East 475 547 37,000  Level Denver Center
Wed 03:18:58 PM 40.1758 -102.7669 79° East 473 544 37,000  Level Denver Center
Wed 03:20:00 PM 40.2028 -102.5983 78° East 473 544 37,000  Level Denver Center
Wed 03:21:02 PM 40.2292 -102.4306 78° East 473 544 37,000  Level Denver Center
Wed 03:22:04 PM 40.2597 -102.2289 79° East 472 543 37,000  Level Denver Center
Wed 03:23:06 PM 40.2850 -102.0594 79° East 475 547 37,000  Level Denver Center
Wed 03:24:08 PM 40.3119 -101.8906 78° East 475 547 37,000  Level Denver Center
Wed 03:25:10 PM 40.3378 -101.7206 79° East 477 549 37,000  Level Denver Center
Wed 03:26:12 PM 40.3650 -101.5383 79° East 477 549 37,000  Level Denver Center
Wed 03:27:14 PM 40.3897 -101.3667 79° East 479 551 37,000  Level Denver Center
Wed 03:28:16 PM 40.4150 -101.1964 79° East 477 549 37,000  Level Denver Center
Wed 03:29:17 PM 40.4389 -101.0261 80° East 475 547 37,000  Level Denver Center
Wed 03:30:19 PM 40.4642 -100.8558 79° East 475 547 37,000  Level Denver Center
Wed 03:31:21 PM 40.4986 -100.6533 77° East 475 547 37,000  Level Denver Center
Wed 03:32:23 PM 40.5272 -100.4833 77° East 477 549 37,000  Level Denver Center
Wed 03:33:25 PM 40.5558 -100.3125 78° East 478 550 37,000  Level Denver Center
Wed 03:34:27 PM 40.5825 -100.1417 78° East 478 550 37,000  Level Denver Center
Wed 03:35:29 PM 40.6103 -99.9700 78° East 479 551 37,000  Level Denver Center
Wed 03:36:31 PM 40.6378 -99.7994 78° East 479 551 37,000  Level Denver Center
Wed 03:37:33 PM 40.6700 -99.5914 78° East 484 557 37,000  Level Denver Center
Wed 03:38:35 PM 40.6972 -99.4183 78° East 485 558 37,000  Level Denver Center
Wed 03:39:37 PM 40.7239 -99.2453 78° East 484 557 37,000  Level Denver Center
Wed 03:40:39 PM 40.7503 -99.0708 79° East 486 559 37,000  Level Denver Center
Wed 03:41:41 PM 40.7772 -98.8919 79° East 484 557 37,000  Level Denver Center
Wed 03:42:43 PM 40.8014 -98.7278 79° East 482 555 37,000  Level Denver Center
Wed 03:43:45 PM 40.8314 -98.5200 79° East 486 559 37,000  Level Denver Center
Wed 03:45:07 PM 40.8667 -98.2806 79° East 482 555 37,000  Level Minneapolis Center
Wed 03:46:09 PM 40.8914 -98.1083 79° East 480 552 37,000  Level Minneapolis Center
Wed 03:47:11 PM 40.9161 -97.9358 79° East 480 552 37,000  Level Minneapolis Center
Wed 03:48:13 PM 40.9400 -97.7611 80° East 482 555 37,000  Level Minneapolis Center
Wed 03:49:15 PM 40.9644 -97.5875 79° East 482 555 37,000 48 Level Minneapolis Center
Wed 03:50:17 PM 40.9875 -97.4114 80° East 485 558 37,100  Climbing Minneapolis Center
Wed 03:51:19 PM 41.0136 -97.2200 80° East 484 557 37,000 -48 Descending Minneapolis Center
Wed 03:52:21 PM 41.0361 -97.0464 80° East 482 555 37,000  Level Minneapolis Center
Wed 03:53:23 PM 41.0603 -96.8725 80° East 482 555 37,000  Level Minneapolis Center
Wed 03:54:24 PM 41.0833 -96.6969 80° East 484 557 37,000  Level Minneapolis Center
Wed 03:55:26 PM 41.1114 -96.4856 80° East 486 559 37,000  Level Minneapolis Center
Wed 03:56:28 PM 41.1314 -96.3233 81° East 487 560 37,000  Level Minneapolis Center
Wed 03:57:30 PM 41.1544 -96.1444 80° East 492 566 37,000  Level Minneapolis Center
Wed 03:58:32 PM 41.1736 -95.9667 82° East 487 560 37,000  Level Minneapolis Center
Wed 03:59:34 PM 41.1997 -95.7536 81° East 488 562 37,000  Level Minneapolis Center
Wed 04:00:36 PM 41.2231 -95.5714 80° East 490 564 37,000  Level Minneapolis Center
Wed 04:01:38 PM 41.2447 -95.3967 81° East 485 558 37,000  Level Minneapolis Center
Wed 04:02:40 PM 41.2658 -95.2197 81° East 484 557 37,000  Level Minneapolis Center
Wed 04:03:42 PM 41.2856 -95.0447 81° East 483 556 37,000  Level Minneapolis Center
Wed 04:04:44 PM 41.3053 -94.8700 81° East 480 552 37,000  Level Minneapolis Center
Wed 04:05:45 PM 41.3286 -94.6589 82° East 480 552 37,000  Level Minneapolis Center
Wed 04:06:47 PM 41.3483 -94.4842 81° East 480 552 37,000  Level Minneapolis Center
Wed 04:07:49 PM 41.3675 -94.3103 82° East 478 550 37,000  Level Minneapolis Center
Wed 04:08:51 PM 41.3858 -94.1311 82° East 477 549 37,000  Level Minneapolis Center
Wed 04:09:53 PM 41.4042 -93.9578 82° East 476 548 37,000  Level Minneapolis Center
Wed 04:10:55 PM 41.4228 -93.7844 82° East 475 547 37,000  Level Minneapolis Center
Wed 04:11:57 PM 41.4406 -93.6106 82° East 476 548 37,000  Level Minneapolis Center
Wed 04:12:59 PM 41.4592 -93.4344 82° East 479 551 37,000 48 Level Minneapolis Center
Wed 04:14:01 PM 41.4783 -93.2261 83° East 477 549 37,100 435 Climbing Minneapolis Center
Wed 04:15:03 PM 41.4950 -93.0514 83° East 477 549 37,900 871 Climbing Minneapolis Center
Wed 04:16:05 PM 41.5103 -92.8758 83° East 479 551 38,900 532 Climbing Minneapolis Center
Wed 04:17:07 PM 41.5269 -92.7003 83° East 479 551 39,000 54 Climbing Minneapolis Center
Wed 04:17:56 PM 41.5400 -92.5514 83° East 472 543 39,000  Level Chicago Center
Wed 04:18:58 PM 41.5544 -92.3739 84° East 480 552 39,000  Level Chicago Center
Wed 04:20:00 PM 41.5703 -92.2011 83° East 478 550 39,000  Level Chicago Center
Wed 04:21:02 PM 41.5881 -91.9944 83° East 477 549 39,000  Level Chicago Center
Wed 04:22:04 PM 41.6025 -91.8208 84° East 476 548 39,000  Level Chicago Center
Wed 04:23:06 PM 41.6156 -91.6481 84° East 474 545 39,000  Level Chicago Center
Wed 04:24:08 PM 41.6306 -91.4747 83° East 474 545 39,000  Level Chicago Center
Wed 04:25:10 PM 41.6461 -91.2647 84° East 479 551 39,000  Level Chicago Center
Wed 04:26:13 PM 41.6600 -91.0900 84° East 480 552 39,000  Level Chicago Center
Wed 04:27:15 PM 41.6725 -90.9144 84° East 480 552 39,000  Level Chicago Center
Wed 04:28:17 PM 41.6856 -90.7392 84° East 480 552 39,000  Level Chicago Center
Wed 04:29:19 PM 41.7003 -90.5367 84° East 482 555 39,000  Level Chicago Center
Wed 04:30:21 PM 41.7125 -90.3583 85° East 480 552 39,000 -48 Level Chicago Center
Wed 04:31:23 PM 41.7258 -90.1819 84° East 477 549 38,900  Descending Chicago Center
Wed 04:32:25 PM 41.7375 -90.0036 85° East 479 551 39,000 48 Climbing Chicago Center
Wed 04:33:27 PM 41.7500 -89.8214 85° East 486 559 39,000  Level Chicago Center
Wed 04:34:29 PM 41.7611 -89.6339 85° East 496 571 39,000  Level Chicago Center
Wed 04:35:31 PM 41.7719 -89.4183 86° East 486 559 39,000  Level Chicago Center
Wed 04:36:33 PM 41.7850 -89.2331 85° East 498 573 39,000  Level Chicago Center
Wed 04:37:35 PM 41.7953 -89.0494 86° East 495 570 39,000  Level Chicago Center
Wed 04:38:37 PM 41.8064 -88.8647 85° East 498 573 39,000  Level Chicago Center
Wed 04:39:40 PM 41.8164 -88.6806 86° East 499 574 39,000  Level Chicago Center
Wed 04:40:42 PM 41.8275 -88.4600 86° East 496 571 39,000  Level Chicago Center
Wed 04:41:44 PM 41.8372 -88.2753 86° East 495 570 39,000  Level Chicago Center
Wed 04:42:46 PM 41.8464 -88.0917 86° East 489 563 39,000  Level Chicago Center
Wed 04:43:48 PM 41.8556 -87.9069 86° East 494 568 39,000  Level Chicago Center
Wed 04:44:50 PM 41.8633 -87.7225 87° East 494 568 39,000  Level Chicago Center
Wed 04:45:52 PM 41.8719 -87.5381 86° East 496 571 39,000  Level Chicago Center
Wed 04:46:54 PM 41.8817 -87.3167 87° East 496 571 39,000  Level Chicago Center
Wed 04:47:56 PM 41.8886 -87.1311 87° East 498 573 39,000  Level Chicago Center
Wed 04:48:58 PM 41.8961 -86.9475 87° East 495 570 39,000  Level Chicago Center
Wed 04:50:00 PM 41.9031 -86.7644 87° East 493 567 39,000  Level Chicago Center
Wed 04:51:02 PM 41.9097 -86.5667 87° East 495 570 39,000  Level Chicago Center
Wed 04:52:05 PM 41.9164 -86.3822 87° East 495 570 39,000  Level Chicago Center
Wed 04:53:07 PM 41.9231 -86.2003 87° East 491 565 39,000  Level Chicago Center
Wed 04:54:09 PM 41.9289 -86.0158 88° East 493 567 39,000  Level Chicago Center
Wed 04:55:11 PM 41.9344 -85.8319 88° East 492 566 39,000  Level Chicago Center
Wed 04:56:13 PM 41.9411 -85.6094 88° East 493 567 39,000  Level Chicago Center
Wed 04:57:15 PM 41.9464 -85.4239 88° East 492 566 39,000  Level Chicago Center
Wed 04:58:17 PM 41.9514 -85.2408 88° East 487 560 39,000  Level Chicago Center
Wed 04:59:19 PM 41.9522 -85.0594 90° East 483 556 39,000  Level Chicago Center
Wed 05:00:21 PM 41.9508 -84.8778 91° East 484 557 39,000  Level Chicago Center
Wed 05:01:23 PM 41.9483 -84.6956 91° East 489 563 39,000  Level Chicago Center
Wed 05:02:26 PM 41.9472 -84.5122 90° East 489 563 39,000  Level Chicago Center
Wed 05:03:22 PM 41.9489 -84.3303 89° East 480 552 39,000  Level Cleveland Center
Wed 05:04:22 PM 41.9425 -84.1317 92° East 480 552 39,000  Level Cleveland Center
Wed 05:05:22 PM 41.9378 -83.9442 92° East 485 558 39,000  Level Cleveland Center
Wed 05:06:22 PM 41.9367 -83.7628 90° East 490 564 39,000  Level Cleveland Center
Wed 05:07:22 PM 41.9314 -83.5753 92° East 490 564 39,000  Level Cleveland Center
Wed 05:08:22 PM 41.9319 -83.3911 90° East 495 570 39,000  Level Cleveland Center
Wed 05:09:22 PM 41.9319 -83.2069 90° East 495 570 39,000  Level Cleveland Center
Wed 05:10:22 PM 41.9278 -83.0169 92° East 495 570 39,000  Level Cleveland Center
Wed 05:11:22 PM 41.9275 -82.8328 90° East 495 570 39,000  Level Cleveland Center
Wed 05:12:22 PM 41.9267 -82.6456 90° East 495 570 39,000  Level Cleveland Center
Wed 05:13:22 PM 41.9236 -82.4614 91° East 495 570 39,000  Level Cleveland Center
Wed 05:14:23 PM 41.9222 -82.2856 91° East 503 579 39,000  Level Cleveland Center
Wed 05:15:22 PM 41.9228 -82.1069 90° East 498 573 39,000  Level Cleveland Center
Wed 05:16:22 PM 41.9189 -81.9114 91° East 498 573 39,000  Level Cleveland Center
Wed 05:17:22 PM 41.9064 -81.7047 95° East 503 579 39,000  Level Cleveland Center
Wed 05:18:22 PM 41.8894 -81.5147 97° East 503 579 39,000  Level Cleveland Center
Wed 05:19:22 PM 41.8722 -81.3250 97° East 508 585 39,000  Level Cleveland Center
Wed 05:20:22 PM 41.8544 -81.1378 97° East 503 579 39,000  Level Cleveland Center
Wed 05:21:23 PM 41.8383 -80.9511 97° East 503 579 39,000  Level Cleveland Center
Wed 05:22:22 PM 41.8181 -80.7642 98° East 503 579 39,000  Level Cleveland Center
Wed 05:23:22 PM 41.8017 -80.5969 97° East 503 579 39,000  Level Cleveland Center
Wed 05:24:22 PM 41.7847 -80.4161 97° East 498 573 39,000  Level Cleveland Center
Wed 05:25:22 PM 41.7656 -80.2325 98° East 504 580 39,000  Level Cleveland Center
Wed 05:26:22 PM 41.7461 -80.0517 98° East 499 574 39,000  Level Cleveland Center
Wed 05:27:22 PM 41.7283 -79.8681 97° East 499 574 39,000  Level Cleveland Center
Wed 05:28:22 PM 41.7106 -79.6847 97° East 499 574 39,000  Level Cleveland Center
Wed 05:29:22 PM 41.6903 -79.5042 98° East 499 574 39,000  Level Cleveland Center
Wed 05:30:22 PM 41.6717 -79.3211 98° East 499 574 39,000  Level Cleveland Center
Wed 05:31:22 PM 41.6486 -79.1353 99° East 499 574 39,000  Level Cleveland Center
Wed 05:32:22 PM 41.6294 -78.9525 98° East 499 574 39,000 -250 Level Cleveland Center
Wed 05:33:22 PM 41.6081 -78.7669 99° East 504 580 38,500 -750 Descending Cleveland Center
Wed 05:34:22 PM 41.5861 -78.5761 99° East 504 580 37,500 -1,000 Descending Cleveland Center
Wed 05:35:22 PM 41.5636 -78.3853 99° East 510 587 36,500 -950 Descending Cleveland Center
Wed 05:36:22 PM 41.5411 -78.1972 99° East 510 587 35,600 -970 Descending Cleveland Center
Wed 05:37:01 PM 41.5244 -78.0644 99° East 508 585 34,900 -1,010 Descending New York Center
Wed 05:38:03 PM 41.5000 -77.8844 100° East 509 586 33,900 -934 Descending New York Center
Wed 05:39:03 PM 41.4753 -77.7044 100° East 495 570 33,000 -454 Descending New York Center
Wed 05:40:02 PM 41.4500 -77.5275 101° East 489 563 33,000  Level New York Center
Wed 05:41:03 PM 41.4225 -77.3475 101° East 489 563 33,000 -661 Level New York Center
Wed 05:42:00 PM 41.3969 -77.1681 101° East 489 563 31,700 -1,983 Descending New York Center
Wed 05:43:01 PM 41.3672 -76.9853 102° East 495 570 29,100 -2,213 Descending New York Center
Wed 05:44:02 PM 41.3428 -76.8092 100° East 490 564 27,200 -1,884 Descending New York Center
Wed 05:45:02 PM 41.3031 -76.6453 108° East 479 551 25,300 -1,866 Descending New York Center
Wed 05:46:01 PM 41.2625 -76.4956 110° East 457 526 23,500 -1,815 Descending New York Center
Wed 05:47:01 PM 41.2197 -76.3483 111° Southeast 434 499 21,700 -1,736 Descending New York Center
Wed 05:48:02 PM 41.1842 -76.2158 110° East 423 487 20,000 -1,835 Descending New York Center
Wed 05:49:02 PM 41.1469 -76.0694 109° East 399 459 18,000 -1,587 Descending New York Center
Wed 05:50:03 PM 41.1092 -75.9344 110° East 388 447 16,800 -1,210 Descending New York Center
Wed 05:51:01 PM 41.0789 -75.8164 109° East 382 440 15,600 -1,424 Descending New York Center
Wed 05:52:01 PM 41.0411 -75.6761 110° East 376 433 14,000 -1,240 Descending New York Center
Wed 05:53:02 PM 41.0064 -75.5525 110° East 370 426 13,100 -744 Descending New York Center
Wed 05:54:02 PM 40.9717 -75.4319 111° Southeast 356 410 12,500 -992 Descending New York Center
Wed 05:55:03 PM 40.9369 -75.3086 110° East 356 410 11,100 -1,240 Descending New York Center
Wed 05:56:03 PM 40.9056 -75.1994 111° Southeast 336 387 10,000 -1,271 Descending New York Center
Wed 05:57:01 PM 40.8800 -75.1047 110° East 310 357 8,600 -1,160 Descending New York Center
Wed 05:58:02 PM 40.8503 -75.0039 111° Southeast 296 341 7,700 -934 Descending New York Center
Wed 05:59:03 PM 40.8231 -74.8925 108° East 296 341 6,700 -857 Descending New York Center
Wed 06:00:01 PM 40.8078 -74.7903 101° East 291 335 6,000 -356 Descending New York Center
Wed 06:01:01 PM 40.7983 -74.7019 98° East 252 290 6,000  Level New York Center
Wed 06:02:01 PM 40.7736 -74.6239 113° Southeast 237 273 6,000 -103 Level New York Center
Wed 06:02:57 PM 40.7167 -74.6167 175° South 238 274 5,800 -517 Descending New York TRACON
Wed 06:03:57 PM 40.6500 -74.6000 169° South 229 264 5,000 -400 Descending New York TRACON
Wed 06:04:57 PM 40.5833 -74.5833 169° South 236 272 5,000 -50 Level New York TRACON
Wed 06:05:57 PM 40.5167 -74.5667 169° South 234 269 4,900 -550 Descending New York TRACON
Wed 06:06:57 PM 40.4500 -74.5333 159° South 235 270 3,900 -950 Descending New York TRACON
Wed 06:07:57 PM 40.4000 -74.5000 153° Southeast 226 260 3,000 -450 Descending New York TRACON
Wed 06:08:57 PM 40.3667 -74.4333 123° Southeast 238 274 3,000  Level New York TRACON
Wed 06:10:51 PM 40.4167 -74.3333 57° Northeast 191 220 3,000  Level New York TRACON
Wed 06:11:51 PM 40.4667 -74.3167 14° North 190 219 3,000  Level New York TRACON
Wed 06:12:51 PM 40.5167 -74.2833 27° Northeast 193 222 3,000  Level New York TRACON

Login

Don't have an account? Register now (free) for customized features, flight alerts, and more!